Location: Las Navas
(40.6024°N, 4.3345°W)
Time: 00:06:57
(UTC+00:00)

STARLINK-1122 - Pass Details

Date: 03 April 2020
Orbit: 548 x 551 km, 53.0° (Epoch: 27 May)

Event Time Altitude Azimuth Distance (km) Brightness Sun altitude
Rises 19:05:10 0° 305° (NW) 2,722 8.6 -4.7°
Reaches altitude 10° 19:07:26 10° 302° (WNW) 1,825 7.7 -5.1°
Maximum altitude 19:11:30 56° 224° (SW) 659 4.2 -5.9°
Drops below altitude 10° 19:15:32 10° 146° (SE) 1,814 5.8 -6.6°
Enters shadow 19:17:14 - 143° (SE) 2,482 6.5 -6.9°
